• In Moldova, Republic
  • List of Countries
  • For 7 days
  • Water Temperature
  • Satellite Maps
  • Weather Map
  • Weather Widgets
  • user-avatar
    Login

    Hourly Weather Ondjiwa

    Today, 23 April, Sunday

    Time Temperature Precipitation Wind Pressure Humidity
    00:00 +21°C° 0 mm 1 mps 667 mmHg 65%
    01:00 +20°C° 0 mm 1 mps 667 mmHg 72%
    02:00 +20°C° 0 mm 1 mps 667 mmHg 74%
    03:00 +19°C° 0 mm 1 mps 666 mmHg 76%
    04:00 +19°C° 0 mm 1 mps 666 mmHg 78%
    05:00 +19°C° 0 mm 1 mps 667 mmHg 78%
    06:00 +19°C° 0 mm 1 mps 667 mmHg 79%
    07:00 +19°C° 0 mm 2 mps 667 mmHg 79%
    08:00 +21°C° 0 mm 2 mps 668 mmHg 69%
    09:00 +25°C° 0 mm 2 mps 669 mmHg 58%
    10:00 +27°C° 0 mm 3 mps 669 mmHg 48%
    11:00 +28°C° 0 mm 2 mps 669 mmHg 42%
    12:00 +29°C° 0 mm 2 mps 669 mmHg 35%
    13:00 +31°C° 0 mm 2 mps 668 mmHg 29%
    14:00 +30°C° 0 mm 1 mps 668 mmHg 31%
    15:00 +30°C° 0 mm 1 mps 667 mmHg 33%
    16:00 +27°C° 0 mm 0 mps 666 mmHg 36%
    17:00 +28°C° 0 mm 1 mps 666 mmHg 37%
    18:00 +26°C° 0 mm 2 mps 666 mmHg 39%
    19:00 +25°C° 0 mm 2 mps 666 mmHg 41%
    20:00 +24°C° 0 mm 2 mps 666 mmHg 44%
    21:00 +23°C° 0 mm 2 mps 667 mmHg 46%
    22:00 +21°C° 0 mm 2 mps 667 mmHg 49%
    23:00 +20°C° 0 mm 2 mps 667 mmHg 50%

    Tomorrow, 24 April, Monday

    Time Temperature Precipitation Wind Pressure Humidity
    00:00 +21°C° 0 mm 1 mps 667 mmHg 51%
    01:00 +20°C° 0 mm 1 mps 667 mmHg 53%
    02:00 +20°C° 0 mm 1 mps 667 mmHg 53%
    03:00 +20°C° 0 mm 1 mps 667 mmHg 54%
    04:00 +20°C° 0 mm 1 mps 667 mmHg 55%
    05:00 +20°C° 0 mm 1 mps 667 mmHg 55%
    06:00 +20°C° 0 mm 1 mps 667 mmHg 55%
    07:00 +19°C° 0 mm 2 mps 668 mmHg 55%
    08:00 +22°C° 0 mm 3 mps 668 mmHg 48%
    09:00 +26°C° 0 mm 3 mps 669 mmHg 42%
    10:00 +28°C° 0 mm 4 mps 670 mmHg 35%
    11:00 +29°C° 0 mm 4 mps 669 mmHg 32%
    12:00 +31°C° 0 mm 3 mps 669 mmHg 29%
    13:00 +33°C° 0 mm 3 mps 668 mmHg 25%
    14:00 +33°C° 0 mm 3 mps 668 mmHg 25%
    15:00 +31°C° 0 mm 2 mps 667 mmHg 25%
    16:00 +31°C° 0 mm 2 mps 667 mmHg 25%
    17:00 +29°C° 0 mm 2 mps 667 mmHg 29%
    18:00 +27°C° 0 mm 2 mps 667 mmHg 33%
    19:00 +25°C° 0 mm 2 mps 667 mmHg 37%
    20:00 +25°C° 0 mm 2 mps 667 mmHg 38%
    21:00 +24°C° 0 mm 2 mps 667 mmHg 38%
    22:00 +24°C° 0 mm 2 mps 668 mmHg 39%
    23:00 +23°C° 0 mm 2 mps 667 mmHg 41%

    Day after tomorrow, 25 April, Tuesday

    Time Temperature Precipitation Wind Pressure Humidity
    00:00 +21°C° 0 mm 2 mps 667 mmHg 43%
    01:00 +20°C° 0 mm 2 mps 667 mmHg 45%
    02:00 +19°C° 0 mm 2 mps 667 mmHg 47%
    03:00 +20°C° 0 mm 1 mps 667 mmHg 49%
    04:00 +19°C° 0 mm 1 mps 666 mmHg 50%
    05:00 +19°C° 0 mm 1 mps 667 mmHg 52%
    06:00 +19°C° 0 mm 2 mps 668 mmHg 54%
    07:00 +19°C° 0 mm 2 mps 668 mmHg 56%
    08:00 +22°C° 0 mm 3 mps 669 mmHg 51%
    09:00 +25°C° 0 mm 4 mps 670 mmHg 46%
    10:00 +28°C° 0 mm 5 mps 670 mmHg 41%
    11:00 +29°C° 0 mm 4 mps 670 mmHg 38%
    12:00 +30°C° 0 mm 4 mps 669 mmHg 35%
    13:00 +33°C° 0 mm 4 mps 668 mmHg 32%
    14:00 +32°C° 0 mm 4 mps 668 mmHg 32%
    15:00 +31°C° 0 mm 3 mps 667 mmHg 33%
    16:00 +31°C° 0 mm 3 mps 667 mmHg 33%
    17:00 +29°C° 0 mm 3 mps 667 mmHg 39%
    18:00 +27°C° 0 mm 3 mps 667 mmHg 45%
    19:00 +25°C° 0 mm 2 mps 666 mmHg 51%
    20:00 +24°C° 0 mm 2 mps 667 mmHg 52%
    21:00 +24°C° 0 mm 2 mps 667 mmHg 54%
    22:00 +23°C° 0 mm 2 mps 667 mmHg 55%
    23:00 +23°C° 0 mm 2 mps 667 mmHg 56%

    26 April, Wednesday

    Time Temperature Precipitation Wind Pressure Humidity
    00:00 +21°C° 0 mm 2 mps 667 mmHg 57%
    01:00 +21°C° 0 mm 2 mps 667 mmHg 58%
    02:00 +20°C° 0 mm 2 mps 667 mmHg 61%
    03:00 +19°C° 0 mm 2 mps 667 mmHg 63%
    04:00 +19°C° 0 mm 2 mps 667 mmHg 65%
    05:00 +19°C° 0 mm 2 mps 667 mmHg 65%
    06:00 +19°C° 0 mm 2 mps 668 mmHg 65%
    07:00 +19°C° 0 mm 2 mps 668 mmHg 65%
    08:00 +22°C° 0 mm 3 mps 669 mmHg 57%
    09:00 +26°C° 0 mm 4 mps 669 mmHg 49%
    10:00 +28°C° 0 mm 5 mps 670 mmHg 41%
    11:00 +30°C° 0 mm 5 mps 670 mmHg 37%
    12:00 +32°C° 0 mm 4 mps 669 mmHg 32%
    13:00 +34°C° 0 mm 4 mps 668 mmHg 28%
    14:00 +34°C° 0 mm 3 mps 668 mmHg 27%
    15:00 +34°C° 0 mm 3 mps 668 mmHg 26%
    16:00 +32°C° 0 mm 2 mps 667 mmHg 26%
    17:00 +31°C° 0 mm 3 mps 667 mmHg 30%
    18:00 +29°C° 0 mm 3 mps 667 mmHg 34%
    19:00 +27°C° 0 mm 3 mps 667 mmHg 38%
    20:00 +27°C° 0 mm 3 mps 668 mmHg 39%
    21:00 +26°C° 0 mm 3 mps 668 mmHg 40%
    22:00 +25°C° 0 mm 4 mps 668 mmHg 41%
    23:00 +24°C° 0 mm 3 mps 668 mmHg 44%

    27 April, Thursday

    Time Temperature Precipitation Wind Pressure Humidity
    00:00 +24°C° 0 mm 3 mps 668 mmHg 46%
    01:00 +22°C° 0 mm 3 mps 667 mmHg 49%
    02:00 +21°C° 0 mm 3 mps 667 mmHg 53%
    03:00 +20°C° 0 mm 2 mps 667 mmHg 56%
    04:00 +19°C° 0 mm 2 mps 667 mmHg 59%
    05:00 +19°C° 0 mm 2 mps 668 mmHg 59%
    06:00 +19°C° 0 mm 2 mps 668 mmHg 59%
    07:00 +19°C° 0 mm 3 mps 669 mmHg 60%
    08:00 +22°C° 0 mm 4 mps 670 mmHg 52%
    09:00 +25°C° 0 mm 5 mps 670 mmHg 45%
    10:00 +28°C° 0 mm 6 mps 671 mmHg 37%
    11:00 +29°C° 0 mm 5 mps 670 mmHg 34%
    12:00 +32°C° 0 mm 5 mps 670 mmHg 30%
    13:00 +33°C° 0 mm 4 mps 669 mmHg 27%
    14:00 +33°C° 0 mm 4 mps 669 mmHg 27%
    15:00 +33°C° 0 mm 3 mps 669 mmHg 27%
    16:00 +33°C° 0 mm 3 mps 668 mmHg 27%
    17:00 +30°C° 0 mm 3 mps 668 mmHg 31%
    18:00 +28°C° 0 mm 3 mps 668 mmHg 36%
    19:00 +26°C° 0 mm 2 mps 668 mmHg 40%
    20:00 +25°C° 0 mm 3 mps 668 mmHg 41%
    21:00 +24°C° 0 mm 3 mps 669 mmHg 42%
    22:00 +24°C° 0 mm 3 mps 669 mmHg 43%
    23:00 +22°C° 0 mm 3 mps 669 mmHg 44%

    28 April, Friday

    Time Temperature Precipitation Wind Pressure Humidity
    00:00 +21°C° 0 mm 3 mps 668 mmHg 46%
    01:00 +20°C° 0 mm 3 mps 668 mmHg 47%
    02:00 +20°C° 0 mm 3 mps 668 mmHg 50%
    03:00 +19°C° 0 mm 4 mps 668 mmHg 52%
    04:00 +19°C° 0 mm 4 mps 668 mmHg 55%
    05:00 +19°C° 0 mm 4 mps 669 mmHg 58%
    06:00 +19°C° 0 mm 4 mps 669 mmHg 62%
    07:00 +19°C° 0 mm 4 mps 670 mmHg 65%
    08:00 +22°C° 0 mm 5 mps 671 mmHg 57%
    09:00 +26°C° 0 mm 5 mps 671 mmHg 48%
    10:00 +28°C° 0 mm 6 mps 672 mmHg 39%
    11:00 +30°C° 0 mm 5 mps 671 mmHg 35%
    12:00 +32°C° 0 mm 4 mps 671 mmHg 30%
    13:00 +33°C° 0 mm 4 mps 670 mmHg 25%
    14:00 +33°C° 0 mm 4 mps 670 mmHg 25%
    15:00 +33°C° 0 mm 3 mps 670 mmHg 25%
    16:00 +33°C° 0 mm 3 mps 669 mmHg 25%
    17:00 +29°C° 0 mm 3 mps 669 mmHg 30%
    18:00 +27°C° 0 mm 3 mps 669 mmHg 35%
    19:00 +25°C° 0 mm 3 mps 669 mmHg 40%
    20:00 +24°C° 0 mm 3 mps 669 mmHg 43%
    21:00 +24°C° 0 mm 3 mps 670 mmHg 47%
    22:00 +22°C° 0 mm 3 mps 670 mmHg 50%
    23:00 +22°C° 0 mm 4 mps 670 mmHg 51%
    Show more